Location: Gu�tanj
(46.5431°N, 14.9692°E)
Time: 23:09:41
(UTC+00:00)

X-37B - Pass Details

Date: 03 October 2021
Orbit: 385 x 389 km, 45.0° (Epoch: 17 October)

Event Time Altitude Azimuth Distance (km) Brightness Sun altitude
Exits shadow 03:57:24 17° 232° (SW) 1,078 2.3 -11.8°
Maximum altitude 03:58:21 19° 209° (SSW) 1,000 2.3 -11.7°
Drops below altitude 10° 04:00:40 10° 162° (SSE) 1,408 3.6 -11.3°
Sets 04:03:06 0° 143° (SE) 2,260 4.9 -10.8°
